Simultaneous Nadir Overpasses (SNOs) Predictions

Prediction of SNOs between GOES-16 and LANDSAT-8 Satellite Orbit:

Table of predicted SNOs for the next 14.0 days since TLE Epoch: 10/24/2025
Index Date Time (GOES-16) GOES-16 Lat,Lon LANDSAT-8 Lat,Lon Distance(km) Time Diff (sec)
1 10/26/2025 04:55:06 -0.04,-104.62 0.70,-101.07 403.89 80
2 10/26/2025 17:16:21 0.04,-104.65 0.39,-106.23 179.01 80
3 10/28/2025 17:06:51 0.05,-104.60 -0.25,-103.28 150.72 80
4 10/29/2025 05:28:15 -0.05,-104.54 -0.88,-108.46 446.16 80
5 10/30/2025 16:54:41 0.06,-104.54 -0.85,-100.32 480.65 80
6 10/31/2025 05:16:04 -0.05,-104.48 -0.27,-105.50 116.21 80
7 11/02/2025 05:01:13 -0.06,-104.43 0.35,-102.55 213.95 80
8 11/02/2025 17:22:29 0.05,-104.46 0.72,-107.71 369.46 80
9 11/04/2025 17:10:17 0.05,-104.40 0.13,-104.74 39.34 80
10 11/06/2025 17:00:45 0.05,-104.34 -0.48,-101.78 290.49 80
11 11/07/2025 05:22:09 -0.05,-104.28 -0.63,-106.97 305.85 80
